Theta_e
338 338 338 338 337 337 337 337 336 337 337 337 338 338 338 338 338 338 338 338 338 338 338 338 338 338 338 338 338 338 339 339 339 339 339 339 338 338 338 338 338 338 338 338 338 338 338 338 337 337 337 337 336 336 336 336 335 335 335 335 335 334 334 334 334 333 333 333 333 333 333 333 333 333 333 333 333 334 334 334 334 334 334 334 334 334 333 333 332 331 331 331 331 332 331 331 329 322 318 316 317 317 318
337 337 338 338 337 337 337 336 335 335 335 335 336 337 338 338 338 337 337 337 337 337 337 337 337 338 338 338 338 338 338 338 338 338 338 338 338 338 338 338 338 338 338 338 338 338 337 338 337 336 336 336 336 335 335 336 335 335 334 334 334 334 334 334 334 334 334 334 334 334 334 334 333 333 334 334 334 334 334 334 334 334 334 334 334 333 333 332 332 331 331 331 331 330 330 329 326 321 317 317 317 317 317
336 336 337 337 337 336 336 335 334 334 334 334 334 335 337 337 337 337 337 336 336 336 336 337 337 337 337 337 337 337 337 337 337 337 337 337 337 337 337 337 337 338 338 338 338 338 337 337 337 336 336 335 334 333 334 335 335 335 334 334 334 334 334 334 334 334 334 334 334 334 334 334 334 334 334 334 334 334 334 334 334 334 334 334 334 333 333 332 332 331 331 331 330 330 329 327 323 320 318 318 318 318 317
335 335 336 336 336 336 335 334 333 332 332 332 333 334 335 336 336 336 336 336 336 336 336 336 336 336 336 336 336 336 336 336 336 336 336 336 336 336 335 335 335 336 336 337 337 337 336 336 336 336 335 334 332 332 333 335 334 335 334 334 334 334 333 333 333 334 334 334 334 334 334 334 334 334 334 334 334 334 334 334 334 334 334 333 333 332 332 332 331 331 331 331 330 330 327 323 322 320 319 319 318 317 315
334 334 335 335 335 335 334 333 333 332 331 331 332 333 334 334 335 335 335 335 335 335 335 335 335 335 335 335 335 335 335 335 335 335 335 335 335 335 334 333 332 333 334 334 335 335 335 335 336 335 333 332 332 333 334 334 334 334 333 333 333 333 333 333 333 334 334 334 334 334 334 334 334 334 334 334 334 334 334 334 333 333 333 332 332 332 332 331 331 331 330 330 330 327 324 322 321 320 320 319 318 316 315
334 334 334 334 334 333 333 333 333 333 332 331 331 332 333 334 334 333 333 333 334 334 334 334 334 334 334 334 334 335 335 334 334 333 334 334 334 333 332 331 330 330 330 330 330 330 332 334 334 333 332 332 333 333 333 333 332 332 332 332 333 333 333 333 333 334 334 334 334 334 334 334 334 334 334 334 334 334 334 333 332 331 331 330 330 330 330 330 330 330 330 329 328 324 322 321 321 320 320 320 320 316 315
334 334 333 333 332 332 332 332 333 333 333 332 332 332 332 332 332 331 331 331 330 331 331 332 332 333 333 333 333 333 333 333 333 333 333 333 332 331 329 328 329 328 327 327 327 327 329 330 328 331 332 332 332 332 332 331 332 332 332 332 332 332 333 333 333 333 333 333 333 333 333 333 333 333 333 333 333 332 331 330 327 326 326 327 328 329 329 329 329 329 328 326 323 322 322 321 321 321 321 321 320 317 316
333 333 333 332 332 331 332 332 332 332 332 333 333 333 332 331 331 331 330 330 329 329 330 330 330 331 331 331 330 331 331 331 330 331 332 331 330 329 328 328 328 326 325 325 325 325 325 326 325 329 331 330 331 331 331 331 331 331 331 331 332 332 332 332 332 332 332 331 331 331 331 331 330 330 330 330 329 329 327 324 321 321 321 322 323 325 327 327 327 326 324 322 320 321 321 321 321 321 321 321 320 318 316
332 332 332 331 331 331 331 332 332 332 332 332 332 332 331 330 331 331 331 330 329 329 329 330 330 330 329 329 328 329 329 328 328 329 329 330 330 329 328 327 326 323 323 323 323 325 327 327 326 328 329 330 330 330 330 330 330 330 330 331 330 330 330 330 330 330 330 329 329 328 328 328 327 327 327 327 326 326 322 319 318 318 319 319 319 321 323 324 324 322 320 319 319 320 320 320 320 320 320 320 320 318 316
331 331 330 330 330 330 331 331 331 332 331 331 331 331 330 330 330 330 331 331 330 330 330 329 328 328 327 327 327 327 327 327 328 328 329 329 329 329 328 326 324 321 322 323 325 328 330 330 328 326 326 325 327 327 328 328 328 328 328 329 329 328 327 327 327 328 328 327 327 326 325 325 325 325 323 322 323 320 317 316 316 317 317 317 317 318 318 319 319 318 318 318 318 318 318 318 318 318 318 318 317 317 316
330 330 329 330 330 330 331 331 331 330 331 331 330 330 330 330 329 330 330 330 330 330 330 330 328 327 327 326 326 326 325 326 326 328 329 329 330 329 327 326 323 323 323 325 327 327 327 328 325 323 321 321 321 323 324 324 323 323 323 324 325 325 323 320 321 322 323 324 324 322 322 322 323 321 319 316 317 315 314 314 315 315 315 316 316 316 315 316 316 316 316 316 315 315 315 316 316 316 316 315 315 315 315
329 329 328 329 330 330 330 329 329 330 330 330 329 330 329 329 329 330 330 330 329 329 329 330 329 327 325 323 322 322 321 321 322 323 324 326 326 326 325 325 323 324 325 325 324 324 324 323 322 320 320 319 318 318 319 319 319 318 318 319 321 324 320 316 316 317 319 319 320 317 317 318 317 316 315 313 313 313 312 313 313 313 313 313 313 313 313 313 313 313 313 313 313 313 313 313 313 313 314 314 313 313 313
328 327 328 329 329 329 329 328 328 329 329 329 328 329 329 328 328 328 328 329 329 329 328 327 325 323 321 320 320 320 320 320 319 320 320 321 321 321 321 321 321 322 322 322 321 321 321 320 319 319 320 319 319 319 319 319 319 318 318 317 318 320 319 316 316 316 316 316 316 314 313 313 313 313 312 313 312 311 311 311 311 311 311 311 310 311 311 311 310 310 310 311 310 311 311 311 311 311 312 312 311 312 312
326 327 327 328 329 328 327 327 327 327 327 327 327 328 327 327 327 327 328 328 327 326 323 322 321 320 319 320 320 320 320 320 320 319 319 319 319 320 320 320 319 321 321 320 320 320 320 320 320 319 320 320 320 320 320 320 320 319 319 318 317 317 318 317 317 316 315 315 314 313 312 312 311 311 311 312 311 310 309 309 309 308 309 309 308 307 307 307 307 307 307 307 308 308 309 309 309 309 310 310 309 310 311
325 326 327 327 327 326 325 325 325 325 326 326 326 327 327 326 326 326 326 326 324 322 321 320 320 320 320 320 320 320 320 319 319 318 318 318 318 319 320 320 320 320 320 320 320 320 320 320 320 320 320 320 319 320 320 319 319 319 319 319 318 317 317 317 316 315 314 314 313 313 312 311 310 310 310 310 309 308 308 308 307 307 307 307 307 306 305 305 305 305 305 305 305 306 306 307 307 307 308 308 308 309 309
324 325 326 325 325 324 324 324 324 325 326 326 327 327 327 326 326 326 325 324 322 321 320 320 319 320 320 319 319 319 319 319 317 317 317 317 318 318 319 319 319 319 319 320 320 319 320 319 319 319 319 320 319 319 319 319 319 318 319 318 318 317 317 316 315 314 313 313 312 312 311 310 310 309 309 309 308 307 307 307 306 306 306 305 305 305 304 304 304 304 304 304 304 304 304 305 305 305 305 306 306 307 308
323 324 324 324 323 323 324 324 325 326 326 327 327 327 327 326 326 324 323 322 322 321 320 320 320 320 319 319 319 319 319 318 318 318 317 317 317 318 318 318 317 318 319 319 319 318 318 318 318 319 319 319 318 317 317 317 316 317 317 317 317 317 316 315 314 313 312 312 311 311 310 309 309 308 307 307 307 306 306 306 306 306 305 305 304 304 304 304 304 304 304 304 304 304 304 304 304 304 304 304 304 305 306
322 323 323 323 323 324 325 326 326 327 327 327 327 327 327 326 324 323 322 322 321 321 321 320 320 320 320 319 320 320 319 319 319 319 318 317 316 317 316 317 317 317 318 319 318 319 318 318 318 318 318 317 316 315 315 314 315 315 316 316 316 315 315 314 313 311 311 311 310 310 309 308 308 307 307 307 307 306 306 305 305 305 304 304 304 304 304 304 303 303 304 304 304 304 304 304 304 304 304 303 304 304 305
322 323 324 324 325 325 326 327 327 327 327 327 327 326 326 325 323 322 322 321 321 321 320 320 320 320 320 320 320 319 319 320 320 319 318 318 316 316 316 317 318 318 318 319 319 318 318 318 317 317 316 315 314 313 313 313 313 314 314 314 314 313 313 312 312 310 310 309 309 309 308 308 308 307 307 306 306 306 306 305 305 305 304 303 304 304 304 303 303 303 303 303 303 303 303 303 303 303 303 303 304 304 304
323 324 325 326 327 327 327 327 327 328 327 327 326 326 325 324 323 322 322 321 321 320 321 321 321 321 321 320 320 321 320 320 319 319 318 317 316 315 316 317 318 319 319 318 319 318 318 317 317 315 314 313 312 311 311 312 312 312 313 313 313 312 312 311 311 310 309 309 308 308 308 307 307 306 305 305 304 304 304 304 305 305 304 303 302 302 302 302 302 302 302 302 302 302 302 303 302 302 302 303 303 303 303
325 326 326 327 328 327 327 328 328 327 327 326 326 325 324 323 322 322 321 321 321 321 322 322 322 322 321 321 320 320 320 319 318 318 319 318 317 316 317 318 319 318 318 317 318 318 318 317 316 314 312 311 311 311 311 311 311 311 312 311 311 311 310 310 309 309 309 308 308 307 307 307 306 305 305 305 304 304 303 303 304 304 302 302 301 301 300 300 301 301 300 300 301 302 302 302 302 301 301 302 302 302 302
326 327 327 328 327 327 327 327 328 327 326 326 325 324 323 323 322 321 321 321 321 321 321 322 321 321 321 320 320 319 319 318 318 318 317 316 316 317 317 318 318 317 317 316 316 316 316 316 314 312 311 310 310 310 310 310 310 310 310 310 310 310 309 308 308 308 308 307 307 307 306 306 306 305 305 305 304 303 303 303 302 302 301 300 299 299 299 299 299 299 299 299 300 301 301 301 301 301 301 301 301 301 301
327 327 327 327 327 327 327 327 327 326 326 325 324 323 322 322 321 320 320 320 321 321 322 321 321 321 321 320 320 319 318 317 317 316 315 315 315 316 316 316 316 316 316 316 315 315 314 314 312 311 310 310 310 310 309 309 309 309 309 308 309 308 308 307 307 307 307 306 306 305 305 304 304 304 303 303 302 302 302 301 301 300 299 299 298 298 298 298 298 298 299 299 300 300 300 300 300 300 300 300 300 299 300
327 327 327 327 326 326 326 326 326 326 325 324 324 323 321 320 320 319 320 320 321 322 322 321 320 320 320 319 318 317 316 316 316 315 313 312 312 313 313 313 313 314 314 314 314 313 313 312 311 310 309 309 309 308 308 308 308 307 307 307 307 307 306 305 304 304 304 304 303 303 302 302 302 301 301 301 300 300 300 300 300 299 298 298 298 298 298 297 297 297 298 298 298 298 299 298 299 299 299 299 299 299 298
327 327 327 327 326 326 325 325 325 325 324 324 322 321 321 320 319 320 320 321 322 322 322 320 320 319 318 317 316 315 314 314 314 313 311 310 310 310 310 310 310 312 312 313 313 312 311 310 310 308 308 308 307 307 307 307 306 306 306 306 305 305 304 302 301 301 301 301 301 301 301 301 301 301 300 300 300 299 299 298 298 297 297 297 296 296 296 297 296 297 297 298 298 297 297 297 298 298 298 298 298 298 297
327 326 327 326 325 325 325 324 324 323 323 322 321 321 321 320 320 321 321 322 322 322 321 319 319 318 317 316 315 314 313 313 312 311 310 308 307 307 307 308 308 309 310 310 310 310 309 308 307 307 307 306 306 306 306 306 305 305 305 304 303 303 302 301 300 300 301 302 302 301 301 301 301 300 300 300 299 298 298 297 297 297 297 296 296 295 295 296 296 296 296 297 297 297 297 297 297 298 298 298 297 297 296
327 327 327 326 325 324 323 323 323 323 322 322 321 321 320 320 321 321 321 321 321 321 319 318 318 317 316 315 314 314 313 312 311 310 308 306 305 305 305 306 307 307 307 307 308 307 307 305 304 305 305 305 305 304 304 304 304 304 303 302 300 301 301 301 300 301 301 301 300 300 299 299 299 299 299 299 299 297 296 296 296 296 296 296 296 296 296 296 296 295 295 296 296 297 297 297 296 296 297 297 296 296 296
327 328 327 326 324 323 322 322 322 322 322 321 321 321 321 321 321 321 320 320 320 319 318 317 317 316 316 315 314 314 313 311 309 308 307 305 304 303 303 304 305 305 305 305 305 305 305 304 303 303 303 303 303 303 302 302 302 302 301 300 300 300 300 301 300 300 300 299 299 298 298 298 299 298 298 298 297 296 296 295 295 294 294 295 295 295 295 296 296 295 295 295 296 296 296 296 296 296 296 296 296 296 295
327 327 326 325 323 322 321 321 322 321 321 320 320 320 320 319 319 319 319 319 318 319 318 316 316 316 316 315 314 313 311 310 308 307 305 304 303 301 301 302 303 303 303 303 302 303 303 303 301 302 302 302 302 301 301 300 301 300 299 299 300 300 300 299 298 299 299 298 298 297 297 297 297 296 296 296 296 295 294 294 295 293 293 294 293 293 294 294 294 295 295 295 295 295 295 295 295 295 295 295 295 295 295
326 325 324 323 322 321 321 320 320 320 319 319 319 318 318 318 317 318 318 319 319 318 317 317 317 317 316 315 313 311 309 308 307 305 304 302 301 300 299 300 301 301 301 301 301 300 301 301 301 301 301 301 301 300 300 299 299 298 298 298 299 299 299 298 296 298 298 297 297 296 296 296 295 294 294 294 294 294 293 293 293 293 293 293 293 292 292 293 293 294 294 295 295 295 295 295 295 294 294 294 294 294 294
324 323 322 321 320 320 319 319 318 319 318 318 318 318 318 317 317 317 318 318 319 318 317 316 317 316 315 313 311 309 307 306 305 303 302 301 300 299 298 298 299 299 299 299 299 299 299 300 300 300 299 300 300 299 299 299 298 296 297 298 299 299 298 298 297 297 296 296 295 294 295 295 293 293 293 293 293 293 293 292 292 293 292 291 291 291 291 291 292 293 293 294 294 295 294 294 294 293 293 293 293 293 293
322 321 320 319 319 318 318 318 317 317 317 317 317 317 317 317 317 317 318 318 317 317 316 316 316 315 313 311 308 307 305 304 303 302 301 300 299 299 298 297 298 297 297 297 297 298 298 299 299 298 298 298 299 298 298 297 296 295 296 297 298 298 297 297 297 297 296 295 294 294 294 294 294 293 292 292 292 292 292 292 291 292 291 290 290 290 290 290 290 292 292 293 293 293 293 293 293 293 293 292 292 292 292
320 320 319 319 318 318 318 317 317 317 317 317 317 316 317 317 317 317 317 317 317 316 316 315 314 312 310 308 306 305 303 302 302 301 300 299 298 298 297 297 298 296 296 296 296 297 297 298 298 298 297 297 297 297 297 296 295 295 296 296 297 297 297 296 296 296 295 295 294 293 293 294 294 293 292 291 291 292 292 291 290 290 291 290 289 290 289 289 289 290 290 291 292 292 292 292 292 293 293 293 293 292 291
320 320 319 319 318 318 317 318 318 317 317 317 316 317 317 317 317 318 318 317 316 316 314 312 310 309 307 306 305 304 303 302 301 300 299 299 298 297 296 297 297 296 295 295 296 296 296 297 298 297 297 296 296 296 296 295 295 295 296 296 297 296 296 295 295 295 294 294 294 293 293 293 293 293 293 292 291 291 291 290 290 290 290 290 289 289 289 289 288 289 289 290 291 291 291 291 291 292 292 293 293 292 291
319 319 318 318 318 317 317 317 317 317 317 317 316 317 317 317 317 318 317 316 315 313 311 309 308 307 306 305 304 303 302 301 300 300 299 298 297 296 296 296 297 296 295 295 295 295 295 296 297 297 297 296 296 295 295 294 294 294 295 296 296 296 295 294 294 294 294 294 294 294 293 293 292 292 292 292 292 291 291 290 289 289 289 289 288 288 288 288 288 289 289 289 289 290 290 290 290 291 291 292 292 291 291
318 318 317 317 317 317 317 317 317 317 317 317 317 317 317 317 317 317 315 313 311 310 308 307 307 307 306 304 303 303 302 300 300 299 298 297 295 295 296 296 297 296 295 295 295 295 295 295 296 296 296 296 296 295 294 294 294 294 295 296 296 295 295 294 294 293 293 293 293 293 293 292 291 291 291 291 291 291 290 290 289 288 289 289 288 287 287 287 288 289 289 289 289 289 289 289 289 290 290 290 290 291 291
317 317 317 317 317 317 317 317 317 316 316 317 317 318 318 317 316 314 312 310 309 308 308 307 307 306 305 303 302 301 300 300 299 298 297 295 295 296 295 295 296 295 295 295 295 295 295 295 295 296 296 295 295 294 294 294 294 294 295 295 295 294 294 293 293 292 292 292 292 292 292 291 291 290 290 290 291 292 291 290 289 288 288 288 287 287 286 287 290 289 288 288 289 289 288 288 289 289 289 289 289 290 290
316 316 316 316 316 316 316 316 316 316 316 317 317 317 316 315 313 311 309 308 307 307 307 306 306 304 303 302 301 300 299 299 298 297 296 295 295 295 295 295 296 295 295 295 295 295 295 295 295 296 296 295 295 294 293 294 293 293 294 295 294 294 293 292 291 292 292 291 290 291 291 291 292 292 290 289 289 290 290 289 289 288 288 287 286 286 286 286 287 287 286 287 288 288 288 288 290 288 288 288 288 289 289
316 316 315 315 315 316 316 316 316 316 316 317 317 316 315 313 311 309 307 306 305 305 305 304 304 303 302 301 300 299 298 297 297 296 295 294 294 294 295 295 295 295 295 295 295 295 295 296 295 296 296 295 294 294 294 294 294 293 294 295 294 294 293 292 290 290 290 291 291 290 290 290 291 292 291 289 288 288 289 289 289 288 288 287 286 285 284 285 285 285 285 285 286 287 288 288 289 288 288 288 287 288 289
316 316 316 315 315 315 315 315 316 316 317 317 316 315 314 312 311 308 306 305 304 304 304 304 303 302 301 300 299 299 298 297 296 295 294 294 294 295 295 295 295 295 295 295 295 295 295 296 295 295 294 295 294 294 293 293 293 292 293 294 293 293 292 292 291 291 292 292 291 289 288 288 289 290 290 289 287 287 287 288 288 288 287 286 286 284 283 282 282 283 283 284 285 286 286 287 288 289 288 287 286 287 288
316 316 316 315 315 314 314 314 315 316 317 317 316 314 313 312 310 308 306 305 305 306 305 304 303 302 301 300 299 299 298 297 296 295 295 295 295 295 295 295 295 295 295 295 294 294 295 295 295 294 294 294 293 293 293 292 293 292 292 293 293 293 292 291 292 292 292 291 289 288 287 287 288 289 289 289 288 287 287 287 288 288 288 287 286 284 283 281 281 281 281 282 283 284 285 286 287 288 288 286 285 285 287
316 316 316 315 314 314 314 314 314 315 316 316 316 314 312 311 309 307 306 306 306 306 306 305 303 302 301 300 300 299 298 297 297 296 295 295 295 295 295 295 295 295 295 294 294 294 294 294 294 293 293 293 293 293 292 292 292 291 292 293 295 293 291 290 290 289 289 290 289 288 287 287 287 288 288 288 287 287 287 288 288 288 288 288 287 284 283 281 280 281 281 280 282 282 283 285 286 287 287 286 284 283 284
316 316 315 315 314 314 314 314 314 315 316 316 315 313 312 310 309 307 306 306 306 305 305 304 302 301 300 299 299 297 297 296 296 296 295 295 294 294 294 295 294 295 295 294 293 293 293 293 294 293 292 292 292 293 292 292 292 292 291 291 293 292 291 290 290 289 289 289 289 289 288 288 288 287 287 287 286 287 287 288 289 288 288 288 289 286 283 281 281 281 280 279 278 279 280 281 281 283 285 286 284 283 283
315 315 314 314 313 312 313 313 314 315 316 316 315 313 312 311 308 306 305 305 304 303 303 303 302 301 300 298 297 296 296 296 296 296 295 295 295 294 295 295 294 294 294 294 293 293 293 293 293 292 291 291 291 292 292 292 293 292 290 290 290 291 291 290 289 289 288 288 287 288 288 288 289 289 287 285 286 285 285 286 287 289 288 287 288 287 286 284 282 281 280 279 277 277 278 279 280 283 284 284 285 283 282
315 314 314 313 312 312 312 313 314 315 316 315 315 314 312 310 307 306 305 303 302 301 301 301 301 301 300 299 298 297 296 296 296 296 296 295 295 294 294 293 294 294 294 293 293 293 293 293 293 292 291 291 291 291 292 292 292 291 290 291 290 291 291 290 289 288 288 288 287 287 286 286 287 287 286 285 286 285 285 285 285 288 288 286 287 287 287 286 283 281 282 281 278 278 278 278 281 283 283 283 283 281 281
314 314 313 312 312 312 312 313 314 315 316 315 315 314 312 310 308 307 306 304 303 303 302 302 301 299 299 298 297 296 296 297 297 297 297 296 296 295 294 293 293 294 293 293 293 293 293 293 292 292 291 290 291 291 291 290 291 290 290 290 290 291 291 290 290 289 288 287 286 286 285 285 286 286 285 284 286 286 285 284 284 286 287 286 285 286 287 287 286 283 282 281 281 279 278 278 280 281 282 282 281 281 282
313 313 312 312 311 311 312 313 314 315 315 315 315 314 313 311 309 308 307 305 304 303 302 301 300 298 298 297 297 296 296 296 297 297 296 296 296 295 294 293 293 293 293 293 293 293 293 293 291 291 291 290 290 290 290 290 290 290 290 289 290 290 290 290 289 289 288 287 286 286 286 286 285 286 286 284 283 285 285 284 284 285 287 288 286 285 285 285 284 285 284 282 281 280 280 280 281 280 280 282 282 283 283
313 312 312 311 310 311 312 313 314 315 315 314 314 314 313 310 309 308 307 306 304 303 302 301 300 299 298 297 297 297 296 296 296 296 296 296 296 295 294 293 292 292 293 292 292 293 293 292 292 292 291 291 290 290 290 290 290 291 290 290 291 291 290 290 289 289 288 288 287 287 286 286 285 286 286 286 284 283 283 284 284 283 284 285 286 284 284 283 282 283 283 284 285 283 282 282 281 280 279 280 282 284 284
313 312 312 311 311 311 312 313 314 314 314 313 313 314 312 310 309 307 306 305 304 303 303 302 301 300 298 297 296 295 295 296 296 296 296 296 296 295 295 294 292 292 292 292 292 292 292 292 292 291 291 290 290 290 289 289 289 289 290 290 291 291 291 289 289 288 288 288 288 287 287 287 286 286 287 287 288 284 284 285 284 283 283 282 283 284 284 283 282 282 282 284 285 284 282 282 282 281 280 280 280 281 282
313 312 311 311 310 311 312 313 314 314 312 311 311 313 312 310 308 307 305 304 302 302 302 302 302 300 297 294 293 294 294 295 296 296 296 296 295 295 295 294 293 292 291 291 292 291 292 292 292 291 290 290 290 289 289 289 289 289 289 289 290 292 291 290 289 288 288 288 288 287 288 288 287 286 286 286 287 285 285 285 285 283 282 281 282 284 285 285 285 283 282 282 283 281 280 280 281 282 281 280 279 280 281
312 311 311 310 310 310 312 313 313 312 311 310 309 312 311 310 308 306 304 303 301 302 302 301 300 298 295 293 293 294 295 295 295 297 296 295 294 294 295 294 293 292 291 291 291 291 291 291 292 291 291 291 291 290 289 289 289 289 289 290 291 292 291 290 289 288 288 287 287 287 287 287 286 285 285 286 286 285 285 285 285 284 282 281 281 284 285 285 286 285 283 282 283 281 280 279 279 280 280 280 280 280 281
312 312 311 310 309 309 310 311 311 310 310 309 308 310 310 310 309 306 304 304 302 302 301 299 296 294 293 294 295 296 296 295 294 295 295 294 293 293 294 294 293 292 291 290 290 291 291 291 291 292 292 292 292 290 289 289 289 289 289 289 291 292 291 289 288 287 286 286 286 287 287 286 286 285 285 286 286 286 286 286 285 285 283 282 281 283 284 284 284 284 283 281 282 281 281 280 279 278 278 278 280 281 281
312 311 310 309 308 309 309 309 308 307 307 308 306 307 308 308 308 305 303 302 302 300 297 295 294 295 294 294 295 295 294 294 293 293 293 292 291 292 292 292 293 292 291 291 290 290 290 290 291 292 292 292 292 291 289 289 289 289 289 289 291 292 290 288 287 286 286 285 286 286 286 286 286 286 285 285 285 286 287 288 286 286 285 283 281 283 284 284 284 284 283 282 282 281 281 281 280 279 278 278 280 280 280
312 310 310 309 308 308 308 306 303 302 304 305 304 304 304 305 305 303 301 299 298 296 294 293 293 294 294 294 294 294 293 292 292 292 292 291 290 291 292 292 292 292 292 291 291 290 290 290 290 291 291 291 291 290 290 289 289 289 289 290 292 292 290 287 286 286 286 286 286 286 286 286 285 285 285 284 285 286 286 287 286 286 285 284 282 282 282 283 284 284 284 284 283 282 282 281 281 281 280 279 280 279 278
311 310 309 308 307 306 303 300 298 299 300 302 302 301 300 300 302 301 299 298 296 294 293 292 292 293 293 294 293 292 291 291 291 291 291 291 290 291 291 292 292 292 292 291 291 290 290 289 289 290 289 289 289 289 289 289 289 289 289 291 294 292 289 287 286 287 287 287 286 286 286 285 284 284 284 284 285 285 286 286 285 285 284 283 283 282 281 282 283 284 285 285 284 283 283 282 282 282 281 280 280 280 279
310 309 308 306 305 301 298 296 295 295 297 298 299 298 297 297 299 299 298 296 295 294 293 292 292 292 292 292 292 291 290 290 290 290 290 291 290 290 291 291 291 291 291 291 290 290 290 289 289 289 289 288 288 287 287 288 288 288 289 290 292 290 288 287 287 287 287 287 287 287 286 286 284 284 284 284 285 285 285 285 283 283 282 282 282 282 282 282 282 284 285 285 284 284 284 283 282 282 282 281 280 281 280
307 306 305 303 301 296 294 293 293 293 294 296 296 295 295 295 297 296 295 294 294 293 293 292 292 292 292 292 292 291 290 289 289 289 289 289 290 290 291 291 291 291 291 291 290 291 290 290 289 289 289 288 288 287 287 287 287 287 287 288 289 288 287 287 287 287 287 287 287 287 287 286 285 285 285 285 284 283 283 284 284 284 284 282 281 282 283 283 282 284 285 285 284 284 284 284 283 283 283 282 282 282 282
304 303 302 300 297 293 292 292 293 293 294 294 295 294 294 294 295 294 294 293 293 292 292 291 291 291 291 291 291 290 290 289 289 289 289 289 289 290 291 291 291 291 291 291 291 291 290 290 290 289 288 288 288 288 287 287 287 287 287 287 287 287 287 287 287 286 286 286 286 286 286 287 285 285 285 285 284 284 283 284 286 285 285 283 282 283 284 284 284 284 285 285 285 284 284 284 284 284 284 283 283 283 283
300 300 300 298 295 292 291 291 292 293 293 294 294 293 293 294 294 293 293 292 292 291 291 290 290 290 290 290 290 289 289 289 290 290 290 290 290 290 290 291 291 290 291 291 290 290 290 290 290 288 287 287 288 288 288 287 288 288 288 288 287 286 286 286 286 286 285 285 285 286 287 286 285 285 285 285 285 285 285 285 285 285 285 284 282 283 284 285 285 285 285 285 285 284 284 284 285 284 284 283 283 283 283
299 298 297 297 294 292 291 291 292 292 293 293 293 293 293 293 292 292 292 292 292 291 290 290 290 289 289 289 290 290 289 289 290 290 291 291 291 290 291 291 291 291 291 291 291 290 290 290 289 287 287 287 288 288 288 287 287 287 287 287 286 286 286 286 286 285 285 285 285 286 286 286 285 285 285 285 285 285 285 284 284 284 284 283 282 282 283 284 285 285 284 284 285 285 285 285 285 284 284 283 283 283 283
297 296 295 295 293 291 291 291 291 291 292 292 293 292 292 291 290 290 291 292 292 291 291 291 290 290 290 290 291 291 291 290 290 290 291 291 292 291 291 291 291 291 291 291 291 290 290 289 288 287 286 286 287 287 287 287 287 286 286 286 285 285 285 285 285 285 285 285 285 286 286 286 286 285 285 285 285 285 284 283 283 283 283 282 282 282 282 282 283 284 283 283 283 284 284 284 284 284 284 284 283 283 283
Wind_Speed
7 6 6 6 6 6 6 5 5 5 6 7 9 10 12 13 13 13 12 12 11 11 10 10 10 9 9 9 9 9 9 9 9 9 9 9 9 9 9 9 9 9 9 8 8 7 7 6 6 6 6 6 5 5 5 5 5 5 5 4 4 4 3 3 3 2 2 2 3 3 4 4 5 5 6 6 7 7 7 8 8 8 9 9 9 10 10 10 10 10 10 9 6 4 2 1 1 0 1 1 1 1 1
7 6 6 6 6 6 5 5 4 4 3 4 5 8 10 11 12 11 11 10 9 9 8 8 8 8 8 8 8 8 8 8 8 8 8 8 8 8 8 8 8 8 8 8 7 7 6 6 6 5 5 5 5 5 4 4 4 4 4 4 4 3 3 3 3 3 3 3 3 3 4 4 4 5 5 5 6 6 7 7 8 8 8 9 9 9 10 10 11 11 11 11 9 7 3 1 2 1 1 1 1 1 1
7 6 5 5 5 5 5 4 3 3 2 3 3 5 8 9 10 9 9 8 8 7 7 8 8 8 8 8 7 7 7 7 7 7 7 7 7 7 7 7 7 7 7 7 6 6 6 5 5 5 5 5 4 3 3 3 3 3 3 3 3 3 3 3 3 3 3 3 3 3 4 4 4 5 5 5 5 6 6 6 7 7 8 8 8 9 9 10 10 10 11 11 11 9 5 2 2 2 1 1 1 1 1
6 6 5 5 4 4 3 3 2 2 2 2 3 4 5 7 8 8 8 8 7 7 8 8 8 8 8 7 7 7 7 7 7 7 7 7 7 7 7 7 6 6 6 5 5 5 5 4 4 4 4 4 4 3 3 3 3 3 3 3 3 3 3 3 3 3 3 3 3 4 4 4 5 5 5 5 5 5 6 6 6 7 7 8 8 9 9 9 10 10 10 10 10 9 5 1 2 1 1 1 2 2 2
6 5 5 4 4 3 2 3 3 3 3 3 3 4 5 6 7 7 7 7 7 8 8 8 8 8 8 7 7 7 7 6 6 6 6 6 7 7 7 6 4 4 4 4 4 4 3 3 3 4 4 3 3 2 2 2 3 3 3 3 3 3 3 4 4 4 4 3 4 4 4 4 5 5 5 5 5 5 5 6 6 6 7 8 8 9 9 9 9 9 9 9 9 6 3 1 1 1 1 1 2 2 2
6 5 5 4 3 2 2 3 4 4 3 3 3 4 5 6 7 6 6 6 7 7 7 7 7 8 8 7 7 7 6 6 5 5 6 6 6 6 5 4 4 3 3 3 3 2 2 2 3 3 3 2 2 2 2 2 2 3 3 3 3 3 3 4 4 4 4 3 3 4 4 4 4 4 4 4 4 5 5 5 5 6 7 7 8 8 8 8 8 8 8 7 6 3 2 1 0 1 1 1 2 2 3
6 5 4 4 2 2 2 3 4 4 3 3 3 3 5 6 6 5 5 5 5 5 6 6 7 7 7 7 6 5 5 5 4 4 5 5 5 5 4 3 3 3 3 2 2 2 2 2 2 2 2 2 2 2 2 2 2 3 3 3 3 3 4 4 4 4 4 4 4 4 4 5 5 5 5 6 6 6 6 5 4 4 5 6 8 8 8 8 8 8 7 6 4 3 2 2 1 0 1 1 2 2 3
5 5 4 3 2 2 3 3 4 4 3 3 3 3 4 4 4 4 4 4 4 4 4 5 5 6 6 5 4 4 4 4 3 3 4 4 4 3 3 3 2 2 2 2 2 1 1 1 1 2 2 3 3 3 3 3 3 3 3 4 4 4 5 5 6 6 7 7 7 7 8 8 8 8 9 9 9 9 8 7 4 4 4 5 6 8 9 10 9 8 7 6 4 4 4 4 3 2 1 1 1 2 2
5 4 4 3 3 3 3 3 4 3 3 3 3 3 3 3 3 3 3 3 3 3 3 4 4 4 4 3 3 3 3 3 2 3 3 3 3 2 2 2 2 2 2 2 2 2 2 2 2 3 4 4 4 5 5 5 5 5 6 6 7 7 7 8 8 9 10 10 10 10 11 11 11 11 12 12 12 11 9 7 5 5 5 5 6 8 9 10 9 8 6 6 6 6 7 7 6 5 4 4 3 2 2
4 4 4 4 3 3 3 3 4 3 3 3 3 2 2 3 3 3 2 2 2 2 2 3 3 3 3 2 2 2 2 2 2 2 2 2 2 2 1 1 1 1 2 2 3 3 4 4 4 4 4 5 6 6 6 7 7 7 7 8 9 9 9 9 10 10 11 11 12 12 12 13 13 13 12 12 12 10 9 7 7 6 6 5 6 6 7 7 7 6 6 6 7 8 8 8 7 7 6 6 6 5 4
5 4 4 4 4 4 3 3 3 3 3 3 2 2 2 2 2 2 2 2 2 2 2 2 2 2 2 2 1 1 1 1 1 1 1 1 1 1 1 1 2 2 2 3 3 4 4 5 4 4 3 3 4 5 6 6 6 6 7 7 8 9 9 8 8 9 10 11 12 12 12 13 13 13 11 9 9 8 8 8 7 7 6 6 6 6 6 6 6 6 6 6 7 8 8 8 7 7 6 7 7 6 6
5 5 4 4 4 4 4 4 3 3 3 3 3 2 2 2 2 2 2 2 2 2 2 2 2 2 2 2 2 2 2 2 2 2 2 1 1 2 2 3 3 3 3 3 3 3 4 3 3 3 3 3 4 4 4 5 5 4 5 6 7 8 8 7 6 7 8 9 10 9 10 11 12 10 9 7 7 8 8 8 7 7 6 6 6 6 6 6 6 6 6 6 7 7 7 7 7 6 6 6 7 7 7
5 5 5 5 5 5 4 4 4 4 4 3 3 3 3 3 2 2 2 2 2 2 2 2 2 2 3 3 3 3 3 3 3 3 2 2 2 3 3 4 4 4 4 4 3 3 3 3 3 3 3 4 4 4 4 4 4 4 4 5 6 7 7 6 6 6 6 7 7 7 8 9 10 8 7 7 6 7 7 7 7 6 6 6 6 6 5 5 6 6 6 6 7 7 7 7 7 6 6 6 6 6 6
6 6 6 6 6 5 5 5 5 4 4 3 3 3 3 3 2 2 2 2 2 2 2 3 3 3 4 4 4 4 4 4 4 4 3 3 3 4 4 4 4 4 4 4 4 4 3 3 3 3 4 4 4 4 4 4 4 4 5 5 5 6 6 5 5 5 6 6 6 6 6 7 8 8 7 6 6 6 7 7 7 7 7 7 6 6 6 6 6 7 6 6 6 7 7 6 6 6 6 6 6 5 5
6 6 6 6 6 6 6 5 5 4 4 4 4 3 3 3 3 3 3 3 3 3 3 3 3 4 4 4 4 4 4 4 4 4 4 4 4 4 4 4 4 4 4 4 4 4 4 4 4 4 4 4 4 4 4 4 4 5 5 5 5 5 5 5 6 6 6 6 6 6 6 6 7 6 6 5 6 7 8 8 7 8 9 9 8 8 8 8 7 8 8 7 6 7 6 6 6 5 5 5 5 5 5
7 7 7 7 7 6 6 5 5 4 4 4 4 3 3 3 3 3 3 3 4 4 4 4 3 4 4 4 4 4 4 4 4 5 5 5 4 4 4 4 4 4 4 4 4 4 4 4 4 4 4 4 4 4 4 4 4 5 5 5 5 5 5 5 6 6 6 5 6 6 5 6 6 6 6 6 7 8 8 8 8 8 9 10 9 9 9 10 9 9 9 8 8 7 6 6 6 5 5 5 5 5 5
8 7 7 7 7 6 6 5 5 5 4 4 4 3 3 3 4 4 4 4 4 4 4 4 4 4 4 4 4 4 4 4 4 5 5 5 4 4 4 4 4 4 4 4 4 4 4 4 4 4 4 4 4 4 4 4 5 5 5 5 5 5 5 5 5 5 5 5 5 5 5 5 6 6 6 7 7 7 8 8 7 8 8 9 9 9 10 10 10 10 10 9 9 7 6 6 6 6 6 6 5 5 5
8 7 7 7 7 6 6 6 5 5 5 5 4 4 4 4 4 4 4 4 4 4 3 3 4 4 4 4 4 3 4 4 4 4 5 5 5 4 4 4 4 3 4 4 4 4 4 4 3 4 4 4 4 4 4 5 5 5 5 5 5 5 5 5 5 5 5 5 5 5 5 5 6 6 6 6 6 6 7 7 7 7 8 8 9 9 9 9 10 10 10 10 9 8 7 7 7 7 7 7 6 6 5
7 7 7 7 7 7 7 6 6 5 5 5 5 4 4 5 5 4 4 4 4 4 3 4 4 4 4 4 3 3 4 4 4 4 5 5 5 5 4 4 4 3 4 4 4 4 4 3 3 4 4 4 4 4 5 5 5 5 6 5 5 5 5 5 5 5 5 5 5 5 5 5 5 5 5 5 6 6 6 7 7 6 7 8 8 8 8 9 9 10 10 9 9 8 8 8 8 9 9 8 8 7 6
7 7 7 7 7 7 7 7 6 6 6 6 5 5 5 5 5 5 4 4 4 3 4 4 4 4 4 4 4 4 4 4 4 4 5 5 5 5 4 3 3 3 3 4 4 4 3 3 4 5 4 4 4 5 5 6 5 5 5 5 5 5 5 5 5 5 5 5 5 5 5 5 5 5 5 5 6 6 7 7 7 6 7 7 8 8 8 8 9 9 9 9 9 8 8 8 8 9 9 9 8 8 7
7 7 7 7 7 7 7 7 7 7 6 6 5 5 5 5 5 5 4 4 4 4 4 4 5 4 4 4 4 5 4 4 4 4 4 4 5 5 5 4 3 3 3 3 4 4 4 4 4 5 5 4 4 5 6 6 5 5 5 5 5 5 5 5 5 5 5 5 5 5 5 6 6 6 6 6 6 6 6 6 6 6 6 7 8 8 8 8 9 8 8 8 8 7 7 7 7 8 9 8 7 7 7
8 7 7 7 7 7 8 8 7 7 7 6 6 6 6 6 5 5 4 4 4 4 4 5 4 4 4 4 5 4 4 4 4 4 4 4 5 6 6 5 4 4 3 4 4 4 4 4 5 5 5 5 5 6 6 5 5 5 6 5 5 5 5 5 4 5 5 5 5 5 5 5 5 5 5 5 5 6 6 5 5 6 6 6 7 7 8 8 8 8 8 8 7 7 7 7 7 7 8 9 8 8 8
8 8 8 8 8 8 8 8 8 8 7 7 8 7 7 6 6 5 4 4 4 4 4 4 4 4 4 5 4 4 4 5 5 4 5 5 6 6 5 5 4 4 4 4 4 4 5 5 5 5 5 5 5 6 5 5 5 5 5 5 5 5 5 5 5 5 5 5 5 5 5 5 5 5 5 5 5 5 5 5 5 5 5 6 6 7 7 7 7 8 8 7 7 7 7 7 7 7 8 9 9 10 9
8 8 8 8 9 8 8 8 8 8 8 8 9 8 7 6 6 5 5 5 5 4 4 4 4 4 4 4 4 4 5 5 5 5 5 6 7 6 5 5 5 5 5 4 5 5 5 5 5 5 5 5 6 6 5 5 5 5 5 4 4 4 4 5 5 5 5 5 4 4 5 5 5 5 5 5 5 5 5 5 6 5 5 6 6 6 6 6 7 7 7 7 7 7 8 7 7 7 8 9 9 10 10
9 9 9 9 9 8 8 8 9 9 9 8 8 7 6 6 6 5 5 5 5 4 4 4 4 4 4 5 5 5 5 5 5 5 6 7 8 7 7 6 7 6 5 5 5 6 6 6 6 6 5 5 5 5 5 5 5 5 4 4 4 4 4 5 5 5 5 5 5 5 5 6 6 6 5 6 6 6 6 6 6 6 6 6 6 6 6 6 6 7 6 6 7 7 7 7 7 7 8 8 9 10 10
10 10 9 9 8 8 8 8 9 9 9 8 7 6 6 6 6 5 5 5 5 4 4 4 4 4 5 5 5 5 5 5 5 6 6 7 8 8 8 8 8 7 6 5 5 6 6 6 6 6 5 5 5 5 5 5 5 4 4 4 4 4 4 5 6 6 6 5 5 5 6 6 6 6 6 6 7 7 7 7 7 6 6 6 6 5 5 5 6 6 6 6 6 7 7 7 7 7 8 8 9 10 10
9 9 9 8 7 8 8 8 9 8 8 7 7 6 6 5 5 5 5 5 5 4 4 4 4 4 5 5 5 5 5 6 6 6 6 7 9 9 9 9 8 7 7 6 5 5 6 6 5 5 5 6 6 5 5 5 5 4 4 4 5 5 5 5 6 6 6 5 6 6 6 6 5 6 7 7 7 7 7 7 6 6 6 6 5 5 5 5 6 6 6 6 6 6 5 6 7 8 8 8 9 9 9
9 9 8 7 7 8 8 8 8 8 7 7 7 6 5 5 5 5 5 5 4 4 4 4 4 5 5 5 5 5 5 6 6 5 6 7 8 8 9 9 9 8 7 6 6 5 6 6 6 5 6 6 5 5 5 5 5 4 4 4 5 5 5 5 5 5 5 5 6 6 6 5 5 5 6 7 6 6 6 6 6 5 5 5 5 5 5 5 5 5 5 6 6 5 5 6 8 8 9 9 9 9 9
10 9 8 8 7 8 8 8 8 8 8 7 7 6 6 6 5 5 5 4 4 4 4 5 5 5 5 5 5 5 5 5 5 5 5 6 6 8 8 9 9 8 8 7 6 6 6 6 6 5 5 5 5 5 5 5 4 4 4 5 5 5 5 5 5 5 5 5 6 6 6 5 4 5 5 5 5 5 5 5 5 5 4 4 4 4 4 4 4 5 5 5 5 5 5 6 7 8 8 9 9 9 9
9 9 9 8 8 8 8 8 8 8 8 7 7 7 7 6 6 5 5 5 5 4 4 5 5 5 5 5 5 5 5 5 5 5 5 6 6 7 8 8 8 8 8 8 7 6 6 6 5 5 5 5 5 5 5 4 4 4 5 5 5 5 5 5 5 5 5 5 5 5 5 5 4 4 4 5 5 5 4 4 5 4 4 4 4 4 4 4 4 4 5 5 5 5 6 6 7 7 8 9 9 8 8
8 8 9 9 9 9 9 9 8 8 8 8 7 7 6 6 5 5 5 5 5 5 5 5 5 6 6 5 5 5 5 5 5 5 5 6 6 6 7 8 8 8 8 7 7 7 6 6 6 5 5 5 5 5 4 4 4 5 5 5 5 5 5 5 5 5 5 4 4 5 5 5 5 4 4 4 4 4 4 4 4 4 4 4 5 5 4 4 4 4 4 5 5 6 6 6 6 7 7 8 8 7 7
8 8 9 10 10 10 10 10 10 9 9 8 8 7 6 6 5 5 5 5 5 5 5 5 5 6 5 5 5 4 4 5 5 5 5 5 6 6 7 7 7 7 7 7 7 7 7 6 6 5 5 5 5 5 4 4 5 5 5 5 5 5 5 4 5 4 4 4 4 5 5 5 5 5 4 4 4 4 4 4 4 4 4 4 5 5 5 4 4 4 4 5 5 6 6 5 6 6 6 6 6 6 7
8 8 9 10 10 9 9 9 9 9 9 8 8 7 6 6 6 6 5 5 5 5 5 5 6 5 5 5 4 4 5 5 5 5 5 5 6 6 6 7 7 7 7 7 7 7 7 7 6 5 5 5 5 5 4 4 5 5 5 5 5 5 4 4 5 4 4 4 4 4 5 5 5 5 4 4 4 4 4 4 4 4 4 4 4 5 5 4 4 4 4 4 5 5 5 5 5 5 5 5 6 6 7
8 8 8 9 9 9 8 8 7 7 7 7 7 6 6 5 5 5 5 5 5 6 6 6 6 5 5 4 4 4 5 5 5 5 5 5 5 6 6 7 6 6 6 7 7 7 7 7 6 6 5 5 5 5 4 4 5 5 4 4 5 4 4 4 4 4 4 4 4 4 4 4 5 4 5 5 4 4 4 4 4 4 4 4 4 4 4 4 4 4 4 4 4 5 5 5 5 5 5 6 6 6 7
8 8 9 9 9 8 8 7 7 6 6 6 6 6 6 5 5 5 5 5 5 5 5 5 5 5 5 4 4 5 5 5 4 5 5 5 5 6 7 7 6 6 6 6 6 6 6 6 6 5 5 5 5 5 5 5 5 4 4 4 4 4 4 4 4 4 4 4 4 4 4 5 5 4 4 5 5 4 4 4 4 3 3 3 4 4 4 4 4 3 3 4 4 4 5 4 5 5 5 6 6 6 6
9 9 9 9 9 8 7 7 6 6 6 6 6 5 5 5 5 5 5 5 4 5 5 5 5 5 4 4 4 5 5 4 4 5 5 6 6 7 7 6 5 6 6 6 6 6 6 6 5 5 5 5 5 5 5 5 4 4 4 4 4 4 4 4 4 4 4 4 4 4 5 5 5 5 5 5 5 5 4 4 3 3 3 3 3 3 3 4 4 3 3 3 4 4 4 4 4 5 5 5 5 5 5
10 9 8 7 7 7 7 7 6 6 6 5 5 5 5 5 5 5 5 5 5 5 5 5 5 5 5 5 4 4 4 4 5 5 6 6 6 6 6 6 5 5 6 6 6 6 6 6 6 5 5 5 5 5 5 5 4 4 4 4 4 4 5 5 4 4 3 4 4 4 5 5 5 5 5 5 5 6 5 4 3 3 3 2 3 3 3 3 4 3 2 3 3 3 4 4 5 5 5 5 5 5 5
10 9 9 8 7 7 7 7 7 6 5 5 4 5 5 5 4 4 5 5 5 5 4 4 4 4 4 4 4 4 4 4 5 5 5 6 6 6 6 5 5 5 5 6 6 6 6 6 6 6 6 5 5 5 5 5 5 5 4 4 4 5 5 5 4 4 3 3 3 3 4 4 4 5 5 5 4 5 4 4 3 3 2 2 2 2 3 3 4 3 3 2 3 3 3 4 5 5 5 5 4 5 5
11 11 10 9 8 7 7 8 8 7 5 4 4 5 5 5 5 4 4 4 5 5 4 4 4 4 4 4 4 4 4 4 5 5 5 6 6 6 5 5 5 5 6 6 5 6 6 6 6 6 6 5 4 5 5 5 5 5 5 5 4 5 5 4 4 4 4 4 4 3 3 2 3 4 4 5 4 4 4 4 4 3 2 1 1 2 2 3 4 4 3 3 2 2 2 3 5 5 5 5 4 4 4
11 12 11 10 9 8 8 8 8 7 6 5 4 4 4 5 5 4 4 4 4 4 4 4 4 4 5 4 4 3 4 4 4 4 5 5 5 5 5 5 5 6 6 6 5 6 6 6 6 6 5 5 4 4 5 5 5 4 5 5 5 4 4 4 4 5 5 6 6 5 3 2 2 2 3 3 4 4 3 3 4 4 2 1 2 3 2 2 3 3 3 3 3 1 2 3 4 6 6 5 4 4 3
10 11 11 11 10 9 8 7 7 7 6 6 5 4 4 4 4 4 4 4 4 4 4 4 3 4 4 4 4 4 4 4 4 4 4 4 5 5 5 5 6 7 6 6 6 6 6 6 6 6 5 5 5 5 4 4 4 4 4 4 5 5 5 5 5 6 7 6 6 5 4 3 2 2 1 2 3 3 2 2 3 3 3 2 2 2 1 1 1 0 2 3 3 3 3 3 4 6 6 4 3 3 3
10 10 11 11 10 9 8 7 6 6 6 6 5 4 4 3 3 3 3 3 3 4 4 3 2 2 3 3 4 4 4 4 4 4 3 4 4 5 6 6 7 7 6 6 6 6 6 6 6 6 6 6 6 5 4 4 3 4 4 4 5 5 5 5 4 5 5 4 4 4 3 3 2 2 1 1 1 1 1 2 3 3 3 3 3 2 1 1 2 1 1 2 3 3 4 3 4 5 4 3 3 3 3
10 10 10 10 10 9 8 7 5 5 6 6 5 5 5 4 3 3 3 4 4 4 4 4 3 2 2 3 3 3 4 4 4 4 4 3 4 5 6 6 7 7 6 5 5 6 6 6 6 6 6 6 5 5 4 4 3 4 4 4 4 4 4 4 4 4 4 3 3 3 3 2 2 2 2 1 1 2 2 3 4 3 4 3 3 2 1 1 1 2 2 1 0 1 2 3 3 3 3 3 2 2 2
10 10 10 10 10 9 8 7 6 6 6 7 6 6 5 5 5 5 5 5 5 4 4 4 4 3 4 4 4 4 3 3 3 4 4 3 3 4 5 6 7 7 7 6 5 6 6 6 5 6 6 6 6 5 5 4 4 4 4 3 3 4 4 4 3 4 3 3 2 2 2 2 2 2 2 2 2 2 3 3 4 4 4 3 3 2 2 2 3 2 0 1 1 2 1 2 3 3 3 3 2 2 1
10 10 10 10 10 10 9 8 7 6 6 7 6 6 6 6 6 6 6 5 6 6 6 6 6 5 5 4 4 3 2 2 2 3 4 3 3 3 4 5 7 8 7 6 5 6 6 6 6 6 6 6 6 6 5 4 4 4 4 4 3 4 4 4 3 3 3 2 2 1 1 1 2 2 2 2 3 2 2 3 3 4 3 3 4 3 3 3 2 1 1 1 1 2 2 1 3 4 3 3 3 2 2
11 10 10 10 10 9 9 8 7 7 7 7 7 6 6 5 5 5 4 4 5 5 5 5 5 4 3 3 3 3 2 2 2 3 3 3 3 3 3 4 6 7 7 7 6 6 7 7 6 6 6 6 6 6 6 6 5 4 4 3 3 3 4 4 3 3 2 2 1 1 1 1 2 2 2 2 2 2 2 3 3 4 3 3 4 4 4 3 3 2 2 2 2 2 1 1 2 3 3 2 2 2 1
10 10 9 9 9 8 8 7 7 7 7 7 7 6 6 5 6 5 5 4 4 4 4 4 4 3 3 3 4 4 4 3 3 3 3 3 3 2 2 3 5 7 7 7 6 6 7 7 6 5 6 6 6 7 7 7 5 5 4 3 3 3 3 3 3 2 2 2 1 1 1 1 1 2 2 2 1 2 2 2 3 3 3 3 3 3 3 3 3 3 3 2 2 0 1 2 3 1 2 2 3 1 0
10 9 9 9 9 8 7 7 8 7 7 7 7 6 6 6 6 7 6 6 6 6 6 6 6 5 4 4 4 4 4 4 4 3 3 3 3 2 2 2 3 6 7 7 6 6 7 6 5 5 5 5 6 6 7 7 6 5 4 3 3 3 3 3 2 2 2 2 2 2 1 0 1 2 2 2 1 2 2 3 3 3 3 3 2 2 3 3 3 2 2 3 4 3 2 1 2 2 2 2 4 3 2
9 9 9 9 9 8 8 7 8 7 7 7 7 6 6 5 5 7 7 7 6 6 7 7 6 5 4 3 2 3 3 3 4 3 3 3 3 3 2 2 3 4 6 6 5 6 6 6 6 5 5 5 5 5 6 6 6 5 4 3 3 3 3 3 3 2 2 2 2 1 1 1 1 2 2 2 2 2 3 3 3 2 1 2 2 2 2 3 2 2 2 2 2 2 2 2 1 1 1 1 3 5 5
9 9 9 9 9 8 8 7 7 7 7 6 6 6 6 5 5 6 6 6 5 5 6 6 6 5 4 3 2 2 2 2 3 3 3 3 3 3 3 2 2 3 4 5 5 5 6 6 6 6 5 5 5 5 5 5 5 4 4 3 2 2 3 3 3 2 1 1 1 1 1 1 2 2 2 1 1 2 3 3 3 1 0 1 1 2 2 2 1 2 2 3 2 2 2 2 2 2 1 0 1 3 5
9 9 9 8 8 8 8 8 6 6 6 6 5 6 6 6 6 6 6 6 5 5 5 5 4 4 4 4 4 3 3 3 3 4 4 4 3 3 3 3 2 2 3 3 5 5 5 6 6 6 6 6 5 4 4 5 5 4 3 2 2 2 2 2 2 2 1 1 2 1 1 1 2 2 1 1 1 1 2 2 2 2 1 1 1 1 1 1 1 2 2 2 2 2 2 2 2 2 2 2 1 1 3
9 9 8 8 7 7 8 7 6 6 6 6 5 6 6 6 6 6 6 5 5 5 4 3 2 3 3 4 4 4 4 4 3 4 4 4 3 2 2 3 2 2 2 2 3 5 5 5 5 6 6 6 6 5 4 4 4 4 3 2 1 2 2 2 1 1 1 1 2 2 2 2 1 2 1 1 1 1 1 2 2 2 1 1 2 1 1 0 1 1 1 1 1 1 1 1 2 2 2 2 2 1 1
8 7 7 7 7 7 7 6 6 6 6 7 6 6 6 6 7 6 5 4 4 5 4 2 2 3 3 4 4 4 4 4 3 3 4 4 3 3 2 2 2 2 2 2 3 4 5 5 5 5 6 6 5 5 5 5 4 4 4 3 2 2 2 2 1 1 1 1 2 2 3 2 2 2 2 2 1 1 1 1 2 2 2 2 2 2 1 1 1 0 1 1 1 1 1 1 2 1 2 2 2 2 1
8 7 8 8 8 7 6 5 5 5 6 6 6 6 6 6 6 6 5 5 5 6 5 4 3 4 4 4 4 4 4 4 3 3 4 4 3 3 3 3 3 3 3 3 2 3 3 4 4 5 5 5 5 4 4 4 4 4 3 3 2 2 2 2 2 1 1 1 1 2 2 3 3 3 3 3 2 1 0 0 1 2 2 2 2 2 1 1 1 1 1 1 1 1 1 1 2 1 1 1 1 1 1
8 8 8 8 8 6 5 4 3 4 5 6 6 6 5 6 7 6 6 6 6 8 7 6 5 5 5 5 5 4 4 4 3 3 3 4 3 3 3 3 2 2 3 3 2 2 2 3 3 4 4 4 4 3 4 4 4 3 2 2 2 2 2 2 2 2 2 2 2 2 2 2 2 2 3 3 3 2 1 1 1 2 2 2 1 1 1 1 1 1 2 2 1 1 1 1 1 1 1 0 1 0 0
8 8 8 8 7 5 3 3 3 4 5 6 7 6 6 6 7 6 6 7 7 8 9 8 8 8 7 7 6 6 5 4 4 4 4 4 3 3 2 2 2 2 2 2 2 2 2 2 2 3 3 3 3 3 3 3 3 2 2 2 2 2 2 2 1 2 2 2 2 2 2 2 2 2 2 2 2 2 2 2 2 2 2 2 1 1 1 1 1 1 2 2 2 2 2 2 1 1 1 1 1 1 0
8 8 8 8 6 3 3 3 3 4 5 6 6 6 6 7 7 7 7 7 8 9 9 9 9 9 8 8 8 7 6 5 4 4 4 4 4 3 2 2 2 2 2 2 2 2 2 2 2 2 2 2 2 2 3 3 3 2 2 1 1 1 1 1 1 1 1 1 1 2 2 2 2 2 2 1 2 2 2 2 2 2 2 2 2 1 1 1 1 1 1 2 2 2 2 2 2 2 2 2 2 2 2
8 8 9 8 6 4 3 3 4 4 5 6 7 6 7 7 7 7 7 8 9 9 8 8 9 8 8 8 7 7 6 5 5 5 5 4 4 3 3 2 2 2 2 1 1 1 2 2 2 2 2 2 2 2 2 2 2 2 1 1 1 1 1 1 1 1 1 1 1 1 2 2 2 1 1 1 1 1 2 2 2 2 2 2 2 2 1 1 1 1 1 1 2 2 2 2 2 2 2 2 2 2 2
8 9 9 9 7 5 4 4 4 5 6 7 8 7 7 8 8 8 8 8 9 8 7 7 8 8 8 7 7 6 5 5 4 5 5 5 5 4 4 3 3 2 2 1 1 1 2 2 3 2 2 2 2 3 3 2 2 2 1 1 1 1 1 1 1 1 1 1 1 1 1 2 2 1 1 1 2 2 2 2 2 2 2 2 3 3 2 2 1 1 1 1 1 2 2 2 2 2 2 2 2 2 1
8 9 9 9 8 5 4 4 5 6 7 7 8 8 8 7 7 7 8 8 8 7 7 6 7 7 7 7 6 6 5 5 4 4 5 5 5 5 5 4 4 3 2 2 2 2 2 2 3 3 2 1 1 2 3 3 2 2 2 2 1 1 1 1 2 2 2 2 2 2 1 2 2 1 1 1 1 1 2 2 2 2 2 2 3 2 2 2 1 1 1 1 1 1 1 2 2 1 2 2 2 1 1
8 9 9 9 8 6 5 4 5 6 7 7 8 8 7 6 6 6 6 7 7 7 6 6 6 6 6 6 6 6 6 5 4 4 4 4 5 5 5 4 4 3 3 2 2 2 2 2 2 2 1 1 1 1 2 2 2 2 2 1 2 1 2 2 2 2 2 2 2 2 2 2 2 1 1 1 1 1 2 2 2 2 2 2 2 1 1 1 1 1 1 1 1 1 1 1 1 2 2 2 1 1 1
Wind_Direction
114 109 107 109 114 118 122 123 121 121 122 124 124 123 123 123 123 125 127 129 132 135 134 132 128 124 122 121 122 123 124 123 122 119 117 115 113 113 113 113 113 113 112 111 110 108 105 103 100 96 92 87 82 76 70 63 57 52 48 44 40 37 33 27 19 10 359 348 338 329 325 323 323 324 325 326 327 327 328 328 328 328 328 328 328 327 326 326 325 324 324 324 325 332 353 54 95 113 286 292 297 310 308
118 117 117 119 123 128 128 125 117 117 119 124 126 124 122 121 122 123 125 126 128 128 124 119 113 111 111 113 116 118 119 118 117 114 112 111 110 110 110 111 111 112 112 112 112 110 109 107 104 101 95 89 82 74 66 58 51 45 39 35 31 26 19 12 5 359 352 343 332 323 319 317 316 317 318 319 319 320 320 321 321 322 323 324 323 323 322 322 322 322 322 322 323 328 344 52 123 154 227 275 293 301 299
120 123 125 127 130 132 129 121 105 103 105 110 115 115 115 115 114 113 113 113 112 107 102 99 97 98 101 104 106 108 108 108 107 106 105 104 103 102 101 101 102 105 108 109 111 111 110 109 107 103 97 89 78 67 58 52 43 36 29 24 19 14 8 0 355 351 345 337 326 316 311 309 308 308 308 308 309 310 311 312 314 316 318 319 318 318 317 316 316 316 316 317 319 324 337 38 138 165 204 243 274 282 280
124 130 134 135 133 132 123 106 82 78 78 83 92 95 98 100 101 99 98 96 93 89 87 87 89 91 93 95 96 97 98 98 98 98 97 97 95 92 90 87 85 90 96 102 107 106 106 105 106 99 92 84 70 59 48 40 29 22 17 14 8 3 357 352 347 343 337 328 317 309 305 303 302 301 301 300 301 302 303 306 309 313 315 316 315 314 312 311 310 309 309 310 313 317 327 32 139 164 194 224 250 262 267
134 140 143 142 136 124 103 82 70 67 67 70 77 82 86 89 91 90 89 87 85 84 84 85 87 89 90 91 92 92 92 92 92 93 93 92 91 87 83 79 71 75 78 82 90 86 88 94 98 89 81 74 66 52 36 23 12 8 5 2 358 353 348 344 342 337 330 320 310 306 305 305 305 304 303 303 302 302 304 306 310 315 317 318 316 313 311 309 308 307 307 307 309 313 319 337 132 163 189 217 239 253 262
144 148 149 146 135 110 85 75 73 72 71 71 75 81 86 87 87 85 83 83 83 84 85 86 88 89 91 92 93 92 92 92 91 91 91 91 90 86 82 77 74 78 74 66 62 55 57 68 81 76 78 78 68 51 27 9 1 359 358 356 352 346 343 342 342 340 336 330 323 321 323 325 326 326 325 324 323 322 321 321 320 323 324 324 322 320 318 316 316 317 316 315 314 314 315 314 296 180 194 213 227 242 255
150 151 151 145 130 103 87 83 83 83 81 81 84 88 89 89 88 86 83 81 80 81 82 84 86 88 90 92 93 96 98 98 95 91 91 92 90 86 81 77 78 83 82 78 74 56 45 47 56 55 65 71 57 45 30 19 12 9 7 4 360 356 355 357 360 4 7 9 10 8 7 8 7 6 5 3 2 1 359 355 347 341 337 335 334 334 335 336 336 336 336 338 341 340 337 333 325 256 219 223 225 233 246
154 153 150 143 127 111 100 98 98 96 94 93 97 95 94 92 92 91 88 84 79 77 76 77 80 84 87 89 91 94 96 96 90 88 92 94 92 84 79 77 77 81 87 94 99 89 65 49 46 38 42 48 46 46 43 39 36 34 33 31 29 27 25 24 26 29 32 34 35 34 32 30 29 27 26 24 22 21 20 20 16 9 0 354 351 352 353 355 355 354 354 356 359 357 355 354 356 352 341 318 275 248 247
158 158 154 145 133 125 120 117 116 111 106 103 103 100 97 96 98 97 94 90 83 78 72 70 70 74 76 77 78 80 80 77 73 78 85 91 91 84 80 80 85 90 97 101 106 101 89 74 62 47 46 47 48 48 47 47 46 46 45 45 45 44 41 38 37 38 40 41 41 40 38 36 35 33 32 30 29 28 28 27 24 19 17 15 14 10 8 7 8 6 6 7 8 5 4 4 6 4 1 358 352 329 291
167 166 159 149 139 139 139 138 132 126 120 114 110 104 100 100 101 102 100 96 87 82 76 69 64 62 62 62 64 68 66 65 67 74 84 93 100 100 97 97 99 99 96 92 88 85 79 73 67 58 52 49 48 48 46 45 45 45 45 47 48 48 46 43 41 40 40 40 40 39 38 36 35 35 34 32 30 30 31 30 27 24 24 24 26 21 18 16 16 16 16 16 15 12 12 13 13 11 9 7 5 2 353
178 170 160 149 144 149 153 153 145 137 133 128 122 115 111 108 107 105 104 101 93 87 83 76 65 57 53 53 61 72 81 89 97 102 111 123 135 136 127 114 102 89 82 76 72 71 70 69 67 63 57 51 47 44 42 40 39 39 41 43 45 47 47 45 40 37 37 37 39 37 36 35 35 35 35 34 31 33 34 33 30 28 28 30 30 26 23 22 23 22 22 23 20 19 19 19 17 16 14 12 11 12 11
183 171 159 151 150 157 163 162 153 147 142 139 134 130 125 123 117 113 110 106 99 93 89 84 74 62 55 55 64 75 84 90 99 110 122 134 142 132 121 108 94 84 78 73 68 68 67 66 64 63 59 54 48 42 38 35 32 31 35 38 40 43 45 46 38 36 35 36 38 37 35 34 34 36 36 35 32 34 36 35 31 30 31 32 32 28 26 25 25 25 26 26 23 23 23 22 20 19 17 16 17 18 18
185 172 161 156 156 163 168 169 161 153 150 147 141 137 133 129 121 116 112 106 103 97 90 85 81 73 67 66 67 70 71 73 76 82 90 100 107 108 104 98 90 85 80 75 71 69 65 62 56 56 57 55 50 45 40 36 32 31 36 38 35 38 43 46 38 38 37 37 39 39 37 36 36 37 36 35 33 37 38 37 33 32 33 35 34 30 28 28 28 27 27 27 25 25 24 22 20 19 17 16 19 19 19
183 172 164 160 161 168 172 171 163 156 150 144 135 132 131 128 120 115 111 107 105 97 86 79 78 76 74 70 67 66 63 61 59 60 65 75 86 94 94 90 87 85 81 77 72 68 64 61 52 50 53 55 50 48 44 40 36 39 41 41 34 36 41 46 42 39 39 39 40 40 40 39 39 38 36 32 32 36 38 37 34 33 35 37 37 32 30 29 28 27 28 28 26 25 24 21 20 17 15 14 15 15 17
175 169 163 162 166 171 171 167 159 151 141 133 127 129 127 122 115 110 106 103 101 95 88 81 78 80 77 73 67 64 59 53 47 46 49 56 66 80 85 85 82 81 79 76 72 65 61 57 50 45 51 56 52 51 48 45 42 44 46 44 39 37 42 46 46 42 41 42 42 41 40 41 41 39 35 32 33 34 35 34 31 31 32 34 35 33 30 29 28 27 27 27 27 26 24 22 19 14 12 10 9 9 12
167 165 164 164 168 169 166 159 152 143 136 132 131 129 123 114 105 100 98 96 93 93 91 89 84 83 79 74 67 61 55 47 41 41 41 42 47 60 72 80 81 80 78 75 71 63 59 55 48 44 51 57 55 54 53 51 48 49 49 47 43 40 44 48 49 45 43 43 43 42 41 41 40 37 33 33 35 35 33 31 29 30 30 30 30 31 30 29 27 26 26 26 25 25 24 22 20 15 12 10 6 3 5
164 163 163 165 167 164 160 154 148 144 140 136 132 127 117 108 99 97 95 94 91 91 91 90 86 80 76 70 63 57 53 50 48 46 43 41 42 46 56 67 74 79 79 76 69 62 57 54 52 50 55 58 56 55 55 55 53 51 51 50 47 44 46 48 49 46 44 43 43 41 41 39 38 34 32 31 33 34 32 30 29 31 31 29 28 30 30 29 27 26 25 24 24 24 23 22 21 18 14 10 7 3 5
163 162 163 163 163 160 156 151 148 145 141 136 129 122 113 106 101 100 100 100 100 95 89 83 78 75 72 68 66 62 61 60 59 55 51 49 48 49 55 61 65 69 73 74 67 61 56 55 56 58 58 58 55 54 54 55 54 52 51 49 46 46 46 47 47 45 43 42 42 40 39 39 39 35 33 32 32 33 32 30 29 31 32 31 30 31 30 28 27 26 25 24 23 22 21 20 20 19 16 14 13 11 14
162 161 161 161 159 156 152 149 146 143 137 130 124 119 113 109 106 106 108 109 107 99 88 77 73 73 70 69 68 68 67 66 66 61 56 52 48 50 56 64 68 66 67 68 66 59 55 55 60 61 59 56 54 53 53 54 53 52 51 48 42 46 47 46 42 44 44 42 40 39 39 40 40 37 34 34 34 34 32 31 29 31 32 33 32 33 30 28 27 26 25 23 22 21 19 18 18 18 17 16 18 16 23
161 160 159 158 156 153 149 145 142 138 132 127 123 118 116 115 114 115 115 113 106 96 82 74 73 74 72 70 68 70 69 67 66 63 58 51 47 48 52 59 68 66 64 65 66 59 54 54 63 62 58 54 54 53 54 55 53 53 50 46 40 46 49 47 40 41 44 44 41 39 39 39 39 37 35 34 35 37 36 33 28 30 33 34 32 32 30 27 26 26 24 23 21 20 19 19 19 18 18 18 20 19 27
159 157 156 154 151 148 145 141 137 133 130 127 124 123 124 125 126 124 120 110 98 86 78 76 77 79 76 72 70 72 72 69 65 65 60 53 46 48 48 50 59 60 60 60 63 60 55 56 64 65 61 56 55 56 55 54 53 54 51 46 40 46 50 49 41 41 44 45 43 41 39 38 36 36 36 35 35 39 38 34 27 29 32 34 30 30 28 26 25 25 24 23 21 20 20 21 20 20 21 22 24 24 31
155 154 151 147 144 141 140 139 137 134 132 130 128 129 130 131 129 123 114 103 93 85 82 83 85 85 81 76 73 75 75 71 66 62 57 52 48 48 47 47 49 54 54 54 58 58 58 60 65 67 65 61 57 58 56 54 52 54 51 46 40 46 50 50 43 43 45 46 46 46 43 40 39 40 39 38 39 41 39 35 30 30 32 32 29 27 25 23 21 23 24 23 19 21 22 22 21 23 26 27 29 30 33
152 150 146 143 141 140 139 139 137 135 133 132 132 132 131 128 123 113 104 97 92 89 88 89 90 86 84 81 79 78 76 72 67 59 52 47 47 47 46 45 44 50 53 54 55 57 59 62 66 67 66 64 60 59 57 54 52 53 51 45 40 45 50 51 47 45 46 48 49 49 48 45 44 46 45 44 44 45 41 36 34 32 33 33 30 28 24 21 18 22 22 21 20 22 23 23 22 27 31 32 34 35 36
151 147 145 143 141 141 140 138 136 134 133 133 132 130 127 121 113 107 101 97 95 94 93 92 89 87 86 86 83 79 75 71 66 58 52 49 49 48 47 47 46 51 55 57 57 58 59 60 64 66 67 65 63 61 58 55 52 52 49 45 41 45 49 52 51 47 47 48 51 51 49 48 47 48 48 47 47 46 42 37 33 32 33 33 31 27 23 20 19 22 20 19 21 23 24 24 25 32 37 39 40 41 41
151 147 145 143 141 139 138 136 136 135 134 132 130 127 122 116 111 107 104 101 99 98 96 93 90 89 89 88 83 77 73 69 64 56 54 52 51 52 52 52 53 55 58 60 60 59 59 60 63 67 67 66 65 62 59 55 53 50 47 43 41 45 49 51 52 49 47 46 46 47 46 44 42 44 44 45 43 43 40 35 29 27 29 32 31 24 20 18 21 22 20 18 21 23 25 27 30 37 41 43 44 45 45
151 147 145 143 140 137 135 135 134 133 131 129 126 122 118 115 111 107 104 102 102 102 100 97 95 92 89 86 80 75 72 70 67 59 57 55 53 54 55 56 58 58 60 63 66 63 61 60 62 66 66 65 63 61 59 56 53 47 43 41 41 43 46 48 50 48 46 44 43 43 42 40 38 40 41 40 39 39 36 32 25 23 24 26 26 19 15 15 20 19 18 18 22 23 26 30 36 41 43 44 45 46 47
153 149 146 142 137 134 133 132 131 130 128 126 124 121 118 114 109 104 103 103 104 105 103 100 97 94 88 82 76 74 73 72 71 65 62 59 55 56 57 59 62 62 62 63 67 69 64 59 60 65 65 64 62 60 59 57 53 45 40 41 45 44 44 46 49 49 48 47 46 44 41 39 39 42 41 40 39 39 36 31 23 22 22 22 19 14 12 13 17 15 15 18 22 24 28 35 41 43 44 45 45 47 47
156 151 146 141 136 133 131 129 127 125 123 121 118 116 113 110 106 104 104 105 106 104 102 100 98 92 86 81 77 76 75 74 73 69 66 63 59 58 59 62 65 65 64 63 63 71 69 63 59 64 66 66 64 60 58 56 52 43 40 43 51 48 46 47 51 53 52 51 52 47 42 39 42 46 45 43 42 41 38 33 24 24 24 22 15 10 9 10 13 12 15 18 20 22 31 40 45 45 45 46 46 47 48
156 150 144 137 131 128 125 122 119 117 114 111 108 106 104 104 105 107 108 109 109 104 102 99 97 88 83 80 79 78 78 77 75 72 70 67 64 60 62 65 67 67 66 64 60 67 72 71 63 65 67 68 67 62 58 54 49 43 43 47 55 53 49 47 51 57 56 54 56 52 46 40 42 48 49 47 44 42 38 33 25 25 24 20 13 9 7 7 8 11 15 18 19 24 34 43 46 45 46 46 46 47 49
154 144 136 129 124 119 116 113 110 108 107 105 104 103 103 103 106 109 110 111 110 106 101 96 92 85 82 81 80 80 80 81 79 75 73 71 69 64 64 66 68 67 66 65 62 65 72 76 71 67 69 71 71 65 60 55 48 43 46 52 57 55 51 47 47 56 57 56 58 57 51 43 39 48 52 51 45 40 36 30 22 23 22 17 9 6 3 2 4 12 17 20 22 30 37 43 45 45 46 46 47 47 49
144 133 125 120 116 112 109 107 105 105 104 105 106 107 107 107 106 107 108 109 108 104 98 92 87 84 82 82 83 83 83 82 80 76 74 73 72 67 66 67 69 67 67 66 65 65 71 76 76 69 69 71 74 68 62 54 49 44 49 55 59 56 53 49 48 54 56 57 60 62 57 49 39 46 55 57 50 41 37 32 21 19 18 13 5 360 357 357 3 14 20 25 29 36 41 43 43 44 46 47 48 48 50
133 124 119 117 115 113 111 109 107 106 106 106 106 107 107 108 107 106 105 105 103 100 94 88 84 84 85 86 85 85 84 81 78 76 76 74 72 68 67 68 71 69 69 69 67 67 70 74 78 72 70 71 74 69 62 53 49 49 53 59 63 60 57 54 53 53 54 57 62 67 64 57 46 45 52 60 59 46 40 34 23 17 13 9 1 354 351 354 6 18 26 31 36 42 44 44 42 43 46 48 49 49 51
130 125 122 121 120 118 116 114 113 112 111 111 110 109 109 108 108 107 104 101 99 93 87 82 80 84 87 89 88 85 82 79 78 79 78 76 73 70 70 70 74 71 71 72 71 70 71 74 78 75 73 73 74 71 64 55 50 53 57 63 68 65 62 59 59 55 53 56 61 68 69 64 54 47 49 55 57 49 42 34 27 17 9 2 357 350 348 352 6 23 32 37 43 47 48 46 44 44 46 48 50 50 49
130 127 125 124 123 122 120 119 118 117 116 115 114 113 111 109 108 106 103 98 93 86 82 79 79 83 86 88 88 83 81 81 81 82 80 78 76 73 73 73 75 73 73 74 75 75 77 79 81 78 76 75 74 73 68 60 52 56 61 66 71 69 66 63 62 56 55 57 58 64 69 68 60 51 49 51 52 48 41 34 29 16 5 355 350 348 347 350 1 25 39 46 51 53 51 48 46 46 47 48 50 50 49
128 125 125 125 125 124 123 121 119 117 115 113 111 111 110 107 103 99 95 91 87 83 81 80 81 81 82 83 85 83 82 83 84 83 81 80 79 76 74 74 75 73 74 76 78 80 82 85 86 83 80 77 74 71 68 63 55 57 63 69 72 71 68 65 62 57 57 59 60 61 66 69 65 55 50 49 52 49 43 35 27 15 1 351 348 346 345 347 356 24 47 57 60 59 55 51 49 49 49 49 50 51 50
127 126 127 128 128 127 125 123 120 117 115 113 112 112 111 109 105 98 91 86 84 82 80 79 81 81 79 77 78 83 86 86 86 83 83 82 81 78 76 77 78 77 78 80 82 83 85 88 90 87 83 79 76 71 68 65 59 60 65 70 72 70 68 64 60 57 58 60 63 62 63 65 66 59 52 47 46 47 43 34 22 12 3 355 351 346 343 345 351 14 49 68 71 66 59 53 51 51 51 51 52 53 52
129 130 130 130 129 128 127 125 123 121 119 118 117 117 115 112 110 107 102 97 92 86 81 80 84 84 82 79 76 84 89 89 86 85 85 85 83 82 82 83 86 86 86 86 86 88 88 89 90 88 85 82 79 75 73 69 62 62 66 71 72 70 68 65 60 57 57 60 65 66 65 64 65 62 57 50 43 41 38 30 16 11 9 5 353 345 344 346 346 356 31 70 78 70 63 57 57 56 54 54 52 54 54
136 135 133 132 133 132 131 129 127 126 125 125 125 124 121 117 115 114 114 111 106 99 94 91 94 95 93 89 83 84 86 88 87 89 90 89 88 89 89 90 92 93 93 92 91 92 91 90 89 88 86 84 83 81 78 74 65 64 67 71 72 72 70 68 64 61 58 58 64 71 72 69 66 66 63 57 50 40 32 24 12 6 12 23 11 355 349 344 342 350 6 40 72 66 63 61 64 63 59 54 50 51 52
142 140 139 139 141 139 137 136 136 136 136 136 137 135 132 129 128 123 121 121 119 115 111 107 104 106 103 97 89 84 83 85 90 95 96 95 95 96 97 99 100 99 97 95 93 92 91 91 90 91 89 86 85 82 80 77 71 67 69 73 72 74 74 73 71 67 61 57 54 62 73 78 69 66 67 67 61 48 34 20 9 360 4 48 65 38 9 349 343 351 355 360 30 50 53 55 61 61 58 53 47 46 50
145 144 144 145 145 143 143 142 143 144 145 145 145 143 143 144 145 142 140 136 133 124 119 117 117 118 113 106 99 95 92 92 95 96 98 101 104 105 107 107 105 100 97 95 95 93 93 93 93 93 92 89 85 82 80 79 80 75 75 76 75 75 75 73 68 63 59 55 50 46 49 62 71 60 63 70 72 58 40 21 9 354 357 43 64 58 45 14 348 347 345 343 340 356 16 29 49 52 51 48 46 40 45
147 147 146 146 146 146 145 145 146 147 147 145 143 141 143 145 145 141 139 138 136 129 126 126 132 132 128 124 123 119 115 110 106 102 105 109 114 114 113 110 105 100 97 96 96 96 96 96 94 93 94 94 91 87 84 82 85 84 85 85 84 79 72 66 62 58 56 53 49 43 40 45 71 59 46 51 73 67 49 24 13 358 6 32 51 46 70 120 156 332 347 346 333 331 346 8 33 43 40 34 38 27 34
150 149 148 147 148 149 148 147 149 149 146 144 142 141 139 136 132 128 129 133 136 134 130 126 126 121 119 122 124 124 121 116 113 111 111 114 117 117 115 111 106 103 100 98 96 97 98 99 99 98 98 98 97 93 90 88 87 83 84 88 90 82 70 61 59 55 53 51 50 48 44 44 66 85 67 25 29 42 32 18 18 12 19 35 56 51 108 153 161 113 51 12 350 337 339 354 18 30 24 13 20 12 19
152 151 150 150 151 151 151 149 150 150 149 146 144 143 141 138 136 125 122 125 129 129 124 120 113 93 87 90 98 104 109 113 115 114 112 110 113 115 112 109 107 105 103 101 99 100 101 102 104 104 104 103 101 99 97 95 88 81 79 82 88 86 80 71 64 60 56 50 43 46 44 43 51 85 99 84 14 10 9 10 11 19 23 29 49 64 89 94 50 67 58 29 317 352 342 341 358 15 5 346 344 2 10
153 154 154 154 153 153 152 151 151 152 150 146 140 137 132 126 116 104 99 100 104 97 98 105 116 109 97 90 88 89 96 109 120 119 118 116 113 107 107 109 109 107 106 106 105 104 105 105 104 104 105 105 105 105 103 98 92 89 84 82 86 93 92 87 77 69 64 56 47 44 43 46 52 65 92 100 72 31 16 10 2 14 20 24 29 39 50 46 22 33 82 183 167 109 46 356 343 3 350 322 297 327 349
157 158 158 157 156 155 154 153 153 152 147 141 134 129 122 112 102 94 89 86 85 84 83 85 92 98 101 102 101 96 99 113 126 124 123 121 112 108 112 115 114 112 112 112 110 109 108 107 105 104 104 106 107 108 106 103 99 98 95 91 91 95 96 95 90 84 81 79 74 68 64 66 75 61 75 95 99 69 36 17 2 5 15 28 26 29 47 66 74 33 5 12 30 53 49 9 320 334 326 307 290 319 348
159 159 159 158 157 156 155 154 153 152 148 143 138 134 129 123 118 116 109 99 90 90 90 89 88 95 107 117 117 121 131 141 138 129 124 121 121 125 128 125 119 116 115 115 114 111 108 106 105 107 106 106 108 109 108 107 106 103 101 99 98 99 99 99 101 104 108 109 102 99 90 89 96 82 78 90 115 104 75 39 17 3 10 29 38 27 37 63 102 86 53 23 13 12 349 286 272 303 318 319 299 317 1
158 158 158 157 156 155 154 154 156 155 153 149 145 144 144 145 146 144 141 134 125 123 126 132 136 144 151 155 154 154 157 158 155 143 141 142 145 139 133 125 118 117 116 115 114 111 108 105 104 107 108 109 110 112 114 113 111 107 105 105 103 103 104 107 112 116 115 104 88 73 64 71 122 105 93 85 109 120 107 76 41 15 6 12 39 33 28 37 74 98 114 122 109 85 283 280 281 359 13 347 310 316 12
157 158 158 158 157 157 159 161 162 160 156 153 151 151 152 154 155 156 156 155 153 154 156 159 160 166 172 175 172 165 161 160 161 157 153 149 143 133 123 111 105 111 112 112 110 109 109 108 107 108 110 112 114 114 114 114 113 114 113 111 108 109 109 109 108 102 96 92 86 79 76 91 159 111 101 97 104 120 110 93 67 36 358 341 351 18 31 34 44 72 115 134 142 160 174 209 307 18 25 351 317 320 315
158 160 160 160 161 161 163 164 165 161 159 158 158 156 156 158 161 162 162 161 160 159 161 163 165 169 175 177 163 160 158 156 155 150 141 133 129 127 120 104 86 98 106 110 110 110 111 112 112 111 111 112 113 112 112 113 114 115 115 113 114 114 111 106 98 95 101 109 110 113 122 125 110 96 100 113 129 119 104 91 78 58 359 325 332 357 16 25 33 40 48 62 92 120 137 141 118 33 352 326 335 326 324
161 162 162 164 165 164 165 165 168 164 162 163 168 164 162 162 164 163 163 162 160 159 162 165 168 169 168 160 141 150 153 149 141 135 130 127 131 130 121 104 83 81 96 108 116 115 115 115 118 116 115 113 109 108 109 111 112 111 109 110 117 117 112 108 108 118 131 138 122 115 95 81 89 96 102 116 128 120 109 101 99 99 278 298 24 21 2 349 17 42 50 54 67 68 82 106 121 142 157 152 27 327 322
163 163 164 165 167 167 166 166 168 162 162 166 177 173 168 164 164 164 164 164 161 162 164 168 169 164 156 151 150 150 144 137 131 132 131 131 132 127 116 107 93 78 85 103 118 120 120 121 122 122 120 117 113 111 109 109 109 107 105 107 114 115 112 112 119 135 147 139 118 106 80 62 71 87 89 83 88 112 117 119 129 134 159 191 124 90 2 316 353 47 55 59 78 77 73 76 96 126 139 142 141 280 312
163 163 164 165 167 169 168 166 163 162 164 171 182 179 173 167 166 166 167 166 162 161 160 157 147 140 138 140 142 135 130 128 128 129 128 126 126 118 112 109 103 93 89 97 111 120 123 125 126 125 122 120 120 119 116 112 110 109 110 112 115 114 111 108 108 118 121 115 114 113 106 93 77 81 83 82 62 81 114 130 134 127 142 171 172 145 163 254 355 35 43 50 66 71 74 80 87 89 101 114 120 107 333
161 161 162 164 168 171 170 167 162 165 169 175 181 180 175 169 165 165 164 161 157 154 148 133 109 113 117 121 124 121 121 124 129 126 124 123 123 118 115 114 112 111 105 100 99 112 119 122 122 120 118 118 119 121 120 117 115 117 121 126 132 123 117 113 112 98 87 90 105 115 118 120 119 118 120 120 108 88 113 129 125 123 147 174 180 170 171 170 131 100 55 42 41 30 43 61 73 76 77 79 87 101 88
159 160 162 165 171 174 173 168 163 169 174 177 178 177 173 167 161 159 157 156 153 148 143 134 122 121 120 120 119 121 123 126 128 125 124 123 124 124 122 120 123 121 114 107 100 102 108 113 115 113 113 114 116 119 119 120 122 126 131 137 143 131 127 128 132 123 114 109 117 123 131 137 140 140 138 134 125 128 138 133 120 129 149 166 170 170 170 160 146 139 122 87 40 19 20 21 16 15 30 53 71 90 126
160 161 163 168 174 176 172 164 162 171 174 174 172 171 167 161 157 159 159 156 152 148 144 141 139 136 133 130 126 127 128 130 128 126 124 124 125 127 127 128 132 124 116 111 109 101 97 100 106 108 108 108 110 112 115 119 125 129 133 137 139 131 133 141 149 148 149 152 157 151 151 152 149 143 139 137 135 148 154 141 116 119 124 130 136 142 144 146 154 138 128 122 127 116 76 37 16 341 339 3 95 53 348
160 160 163 168 174 171 164 158 162 170 170 168 165 164 160 157 159 161 160 157 154 150 147 145 145 142 139 137 136 138 140 140 136 135 132 131 131 133 134 134 130 116 112 112 111 104 98 95 97 104 107 106 103 102 107 113 119 119 119 121 126 133 146 163 175 175 174 172 171 163 158 153 146 143 141 145 150 156 155 145 129 117 107 102 108 120 134 145 162 144 137 139 148 154 155 154 157 196 212 196 157 156 219
161 159 161 164 168 165 160 158 159 161 159 157 156 155 154 155 158 157 155 153 152 150 149 149 148 145 144 144 144 148 150 151 147 143 139 136 136 139 137 129 115 112 110 110 107 107 107 108 108 110 113 113 107 100 100 104 109 109 112 121 132 155 175 187 191 191 181 171 163 155 151 148 148 145 146 150 155 154 150 144 135 125 117 115 119 127 137 152 173 168 155 149 153 156 156 156 162 175 181 178 166 170 192
160 159 159 160 164 167 165 159 154 154 151 149 149 150 151 152 154 152 152 151 151 150 149 147 146 146 146 147 146 149 152 153 150 146 142 137 136 138 133 125 121 122 115 105 106 114 124 134 144 149 142 131 124 119 114 112 112 120 134 152 163 179 187 189 185 191 169 144 139 139 142 144 146 146 145 148 152 152 150 144 133 128 130 137 149 152 154 161 187 190 172 153 148 146 151 163 175 176 174 171 169 180 191
161 161 160 160 163 168 167 160 155 152 149 147 148 149 150 151 153 152 151 150 148 147 145 143 141 142 143 144 142 145 148 151 150 147 144 141 138 139 137 136 140 140 132 126 156 158 156 159 171 180 179 164 146 141 141 142 141 147 160 176 184 180 175 173 178 182 163 144 139 142 143 143 142 143 150 159 168 168 161 152 139 137 146 159 167 165 163 167 181 183 168 146 140 145 161 178 187 174 166 166 173 180 181
165 165 162 160 162 165 163 158 153 150 148 148 148 149 150 151 152 152 151 149 147 146 144 142 139 140 140 141 140 143 148 151 153 152 149 146 143 145 147 148 150 149 147 152 177 184 184 183 189 192 195 192 172 156 153 153 155 157 161 165 170 166 170 175 182 182 174 165 158 158 154 150 148 155 169 181 181 168 155 146 143 145 152 160 166 167 170 172 161 147 137 135 147 160 177 189 187 171 162 160 163 169 163
165 165 161 158 157 156 155 153 148 148 148 148 146 146 146 146 146 147 148 147 146 146 145 142 139 139 141 142 144 146 149 152 154 153 152 149 146 147 149 150 148 146 148 160 181 196 204 208 197 190 194 198 183 153 143 142 147 146 146 147 153 163 175 183 186 184 179 172 165 162 158 156 158 166 175 179 166 143 137 138 139 142 142 143 141 150 165 169 134 131 139 158 180 182 191 198 191 175 165 159 163 170 164